This demonstration page uses our WeatherBlox Daily Observations layout. Learn more.

Left ArrowRight Arrow

38.88101, -77.10428

Hourly Observations for October 17, 2021

Temp ( °F °C ) Dew Point ( °F °C ) Humidity (%) Winds ( mph kmh ) Pressure ( in mb ) Visibility ( mi km ) Precip ( " mm )
12:52 am 00:52 Partly Cloudy 56 13.3 46 7.8 70 70 W 6 9 29.93 1014 10 16 N/A
1:52 am 01:52 Partly Cloudy 55 12.8 46 7.8 72 72 W 7 11 29.94 1014 10 16 N/A
2:52 am 02:52 Partly Cloudy 56 13.3 45 7.2 67 67 WNW 7 11 29.94 1014 10 16 N/A
3:52 am 03:52 Mostly Clear 53 11.7 44 6.7 72 72 WSW 5 7 29.94 1014 10 16 N/A
4:52 am 04:52 Mostly Clear 54 12.2 42 5.6 64 64 W 8 13 29.94 1014 10 16 N/A
5:52 am 05:52 Clear 54 12.2 40 4.4 59 59 W 8 13 29.95 1014 10 16 N/A
6:52 am 06:52 Clear 53 11.7 40 4.4 61 61 W 6 9 29.96 1014 10 16 N/A
7:52 am 07:52 Mostly Sunny 54 12.2 40 4.4 59 59 W 6 9 29.96 1015 10 16 N/A
8:52 am 08:52 Mostly Sunny 56 13.3 40 4.4 55 55 W 13 20 29.98 1015 10 16 N/A
9:52 am 09:52 Mostly Sunny 59 15 41 5 51 51 NW 18 30 29.97 1015 10 16 N/A
10:52 am 10:52 Mostly Sunny 61 16.1 41 5 48 48 NW 20 31 29.97 1015 10 16 N/A
11:52 am 11:52 Partly Cloudy 62 16.7 40 4.4 44 44 NW 17 28 29.96 1015 10 16 N/A
12:52 pm 12:52 Partly Cloudy 64 18 39 4 40 40 NW 15 24 29.94 1014 10 16 N/A
12:58 pm 12:58 Partly Cloudy 65 18.3 40 4.4 40 40 NW 15 24 29.96 1015 10 16 N/A
1:52 pm 13:52 Partly Cloudy 64 17.8 37 2.8 37 37 NW 14 22 29.93 1014 10 16 N/A
2:52 pm 14:52 Mostly Cloudy 65 18.3 38 3.3 37 37 NW 16 26 29.93 1013 10 16 N/A
3:52 pm 15:52 Mostly Cloudy 64 17.8 37 2.8 37 37 NW 8 13 29.94 1014 10 16 N/A
4:52 pm 16:52 Mostly Cloudy 63 17.2 37 2.8 38 38 WNW 9 15 29.94 1014 10 16 N/A
5:52 pm 17:52 Cloudy 63 17.2 36 2.2 37 37 W 8 13 29.94 1014 10 16 N/A
6:52 pm 18:52 Partly Cloudy 61 16.1 35 1.7 38 38 W 8 13 29.97 1015 10 16 N/A
7:52 pm 19:52 Partly Cloudy 58 14.4 36 2.2 44 44 W 7 11 29.99 1016 10 16 N/A
8:52 pm 20:52 Partly Cloudy 57 13.9 37 2.8 47 47 W 8 13 30.00 1016 10 16 N/A
9:52 pm 21:52 Mostly Cloudy 56 13.3 37 2.8 49 49 W 8 13 30.01 1016 10 16 N/A
10:52 pm 22:52 Mostly Cloudy 55 12.8 39 3.9 55 55 W 5 7 30.02 1017 10 16 N/A
11:52 pm 23:52 Mostly Clear 53 11.7 39 3.9 59 59 WSW 7 11 30.02 1017 10 16 N/A

Powered by AerisWeather